Flag for USA

Past Weather in Jersey City, New Jersey, USA — Yesterday and Last 2 Weeks

Now
71 °F

Partly sunny.


Feels Like: 69 °F
Forecast: 86 / 72 °F
Wind: 5 mph from West

Location: Newark International Airport

Current Time: Jul 13, 2020 at 6:32:22 am

Latest Report: Jul 13, 2020 at 5:51 am


Visibility: 10 mi

Pressure: 29.77 "Hg

Humidity: 87%

Dew Point: 67 °F

Location of Jersey CityLocation

Past Weather in Jersey City — Graph

°F

Jersey City Temperature Yesterday

Maximum temperature yesterday: 91 °F (at 3:51 pm)
Minimum temperature yesterday: 71 °F (at 5:51 am)
Average temperature yesterday: 81 °F

High & Low Weather Summary for the Past Weeks

 TemperatureHumidityPressure
High95 °F (Jul 2, 2:55 pm)100% (Jul 10, 2:11 pm)30.11 "Hg (Jul 10, 2:11 pm)
Low68 °F (Jul 1, 2:51 am)23% (Jul 5, 3:51 pm)29.59 "Hg (Jul 10, 8:51 pm)
Average79 °F71%29.87 "Hg
* Reported Jun 28 4:51 am — Jul 13 4:51 am, Jersey City. Weather by CustomWeather, © 2020

Note: Actual official high and low records may vary slightly from our data, if they occured in-between our weather recording intervals... More about our weather records

Jersey City Weather History for the Previous 24 Hours

Scroll right to see more
 ConditionsComfort  
Time TempWeatherWind HumidityBarometerVisibility
4:51 am
Mon, Jul 13
71 °FPartly cloudy.5 mph90%29.76 "Hg10 mi
3:51 am71 °FMostly cloudy.7 mph90%29.75 "Hg10 mi
2:51 am71 °FLight rain. Mostly cloudy.5 mph90%29.75 "Hg10 mi
1:51 am72 °FLight rain. Mostly cloudy.8 mph81%29.78 "Hg10 mi
12:51 am76 °FOvercast.15 mph69%29.79 "Hg10 mi
11:51 pm
Sun, Jul 12
77 °FOvercast.9 mph64%29.78 "Hg10 mi
10:51 pm80 °FMostly cloudy.10 mph58%29.77 "Hg10 mi
10:21 pm82 °FOvercast.12 mph55%29.77 "Hg10 mi
8:51 pm85 °FPassing clouds.10 mph48%29.73 "Hg10 mi
7:51 pm87 °FBroken clouds.10 mph40%29.71 "Hg10 mi
6:51 pm88 °FScattered clouds.13 mph39%29.69 "Hg10 mi
5:51 pm90 °FScattered clouds.16 mph35%29.69 "Hg10 mi
4:51 pm90 °FScattered clouds.9 mph35%29.70 "Hg10 mi
3:51 pm91 °FScattered clouds.18 mph33%29.70 "Hg10 mi
2:51 pm89 °FBroken clouds.9 mph38%29.71 "Hg10 mi
1:51 pm89 °FPartly sunny.15 mph41%29.72 "Hg10 mi
12:51 pm86 °FBroken clouds.7 mph48%29.72 "Hg10 mi
11:51 am86 °FScattered clouds.13 mph48%29.73 "Hg10 mi
10:51 am83 °FScattered clouds.13 mph55%29.73 "Hg10 mi
9:51 am81 °FPassing clouds.15 mph56%29.73 "Hg10 mi
8:51 am78 °FPassing clouds.14 mph62%29.72 "Hg10 mi
7:51 am75 °FPassing clouds.14 mph69%29.72 "Hg10 mi
6:51 am72 °FSunny.13 mph76%29.71 "Hg10 mi
Weather by CustomWeather, © 2020

See weather overview